SJ-11-07                
1 40261U 14059A   19259.84458183 -.00000003  00000-0  91259-5 0  9994
2 40261  98.1976 341.2507 0011635 316.8446  43.1835 14.60477421264850
CZ-2C R/B               
1 40262U 14059B   19259.35890575  .00000060  00000-0  18102-4 0  9993
2 40262  98.2144  17.2788 0046830  84.0988 276.5553 14.71122246266664
CZ-2C DEB               
1 40263U 14059C   19259.50068646  .00000350  00000-0  92411-4 0  9994
2 40263  98.2750 347.5276 0109793  68.5012 292.7847 14.51424099262911
CZ-2C DEB               
1 40264U 14059D   19259.47970218  .00000503  00000-0  12826-3 0  9999
2 40264  97.7868 241.6566 0111171 359.4497   0.6560 14.50888422262791
CZ-2C DEB               
1 40265U 14059E   19258.83234250  .00000060  00000-0  38976-4 0  9991
2 40265  97.9350 179.6781 0192571 229.6589 128.7634 14.19999967257253
CZ-2C DEB               
1 40266U 14059F   19258.88530058  .00000140  00000-0  70679-4 0  9997
2 40266  98.2168 259.0539 0187989 271.7308  86.2349 14.21134412257411